sat.trackr.live / text

‹ back to catalog

STARLINK-2742

NORAD 48688 · 2021-044BC

PAYLOAD ACTIVE UNKNOWN

§ Identity

Operator
Country
US
Launch date
2021-05-26
Launch site
AFETR
Launch vehicle
Mass (kg)
RCS (m²)

Purposes: comms

External: N2YO · Heavens-Above · Gunter

§ Orbital elements

Epoch: 2026-05-25T01:08:47.277024Z

Period
94.01 min
Inclination
53.1609°
Eccentricity
0.0001411
Mean motion
15.31712557 rev/d
Perigee alt
469.7 km
Apogee alt
471.7 km
Semi-major
6,848.8 km
B*
1.4279e-4
RAAN
70.0380°
Arg perigee
96.9850°
Mean anomaly
263.1312°
Rev number
27,619

§ Raw data

STARLINK-27421 48688U 21044BC  26145.04776941  .00004070  00000+0  14279-3 0  99972 48688  53.1609  70.0380 0001411  96.9850 263.1312 15.31712557276192

JSON: /api/v1/satellites/48688 · /tle

For live sub-satellite position, see the globe view (requires WebGL).

§ Visibility from observer

Set your observer location to see the next 7 days of passes ≥ 10°. The values pass through the URL so the page stays shareable.

No JS? Fill the form by hand. The geolocation button needs JavaScript.